Time,TemperatureF,DewpointF,PressureIn,WindDirection,WindDirectionDegrees,WindSpeedMPH,WindSpeedGustMPH,Humidity,HourlyPrecipIn,Conditions,Clouds,dailyrainin,SolarRadiationWatts/m^2,SoftwareType,DateUTC
2013-02-20 00:00:00,39.2,31.9,29.73,NNW,337,6.0,10.0,75,0.00,,,0.00,0,Wunderground v.1.15,2013-02-20 05:00:00,
2013-02-20 00:01:00,39.2,31.9,29.73,NW,307,13.0,13.0,75,0.00,,,0.00,0,Wunderground v.1.15,2013-02-20 05:01:00,
2013-02-20 00:03:00,39.1,31.8,29.73,WNW,294,11.0,13.0,75,0.00,,,0.00,0,Wunderground v.1.15,2013-02-20 05:03:00,
2013-02-20 00:09:00,38.9,31.0,29.73,NW,310,4.0,13.0,73,0.00,,,0.00,0,Wunderground v.1.15,2013-02-20 05:09:00,
2013-02-20 00:14:00,38.8,30.9,29.73,NW,317,6.0,19.0,73,0.00,,,0.00,0,Wunderground v.1.15,2013-02-20 05:14:00,
2013-02-20 00:19:00,38.6,30.4,29.73,West,275,8.0,19.0,72,0.00,,,0.00,0,Wunderground v.1.15,2013-02-20 05:19:00,
2013-02-20 00:24:00,38.4,29.8,29.73,NW,318,2.0,11.0,71,0.00,,,0.00,0,Wunderground v.1.15,2013-02-20 05:24:00,
2013-02-20 00:30:00,38.3,29.7,29.73,WNW,298,1.0,5.0,71,0.00,,,0.00,0,Wunderground v.1.15,2013-02-20 05:30:00,
2013-02-20 00:36:00,38.1,29.5,29.73,WNW,296,1.0,7.0,71,0.00,,,0.00,0,Wunderground v.1.15,2013-02-20 05:36:00,
2013-02-20 00:41:00,37.9,29.3,29.73,NW,308,0.0,4.0,71,0.00,,,0.00,0,Wunderground v.1.15,2013-02-20 05:41:00,
2013-02-20 00:47:00,37.7,29.1,29.73,West,280,5.0,6.0,71,0.00,,,0.00,0,Wunderground v.1.15,2013-02-20 05:47:00,
2013-02-20 00:53:00,37.5,28.9,29.73,NW,311,8.0,8.0,71,0.00,,,0.00,0,Wunderground v.1.15,2013-02-20 05:53:00,
2013-02-20 00:59:00,37.3,28.8,29.74,NW,316,5.0,16.0,71,0.00,,,0.00,0,Wunderground v.1.15,2013-02-20 05:59:00,
2013-02-20 01:04:00,37.2,28.7,29.74,WNW,296,3.0,5.0,71,0.00,,,0.00,0,Wunderground v.1.15,2013-02-20 06:04:00,
2013-02-20 01:10:00,37.1,28.6,29.74,NW,314,5.0,5.0,71,0.00,,,0.00,0,Wunderground v.1.15,2013-02-20 06:10:00,
2013-02-20 01:15:00,36.9,28.4,29.74,NW,309,5.0,11.0,71,0.00,,,0.00,0,Wunderground v.1.15,2013-02-20 06:15:00,
2013-02-20 01:21:00,36.9,28.4,29.74,NW,309,4.0,5.0,71,0.00,,,0.00,0,Wunderground v.1.15,2013-02-20 06:21:00,
2013-02-20 01:27:00,36.8,28.3,29.74,NW,313,10.0,13.0,71,0.00,,,0.00,0,Wunderground v.1.15,2013-02-20 06:27:00,
2013-02-20 01:32:00,36.7,27.8,29.74,NW,315,3.0,6.0,70,0.00,,,0.00,0,Wunderground v.1.15,2013-02-20 06:32:00,
2013-02-20 01:38:00,36.5,27.6,29.74,NW,311,5.0,10.0,70,0.00,,,0.00,0,Wunderground v.1.15,2013-02-20 06:38:00,
2013-02-20 01:44:00,36.4,27.5,29.74,NW,308,2.0,11.0,70,0.00,,,0.00,0,Wunderground v.1.15,2013-02-20 06:44:00,
2013-02-20 01:50:00,36.3,27.4,29.75,WNW,298,8.0,8.0,70,0.00,,,0.00,0,Wunderground v.1.15,2013-02-20 06:50:00,
2013-02-20 01:55:00,36.2,27.4,29.75,NW,304,3.0,8.0,70,0.00,,,0.00,0,Wunderground v.1.15,2013-02-20 06:55:00,
2013-02-20 02:00:00,36.1,27.3,29.75,NW,308,3.0,4.0,70,0.00,,,0.00,0,Wunderground v.1.15,2013-02-20 07:00:00,
2013-02-20 02:05:00,35.9,27.1,29.75,WNW,302,7.0,11.0,70,0.00,,,0.00,0,Wunderground v.1.15,2013-02-20 07:05:00,
2013-02-20 02:10:00,35.8,27.0,29.76,WSW,254,3.0,5.0,70,0.00,,,0.00,0,Wunderground v.1.15,2013-02-20 07:10:00,
2013-02-20 02:15:00,35.7,26.9,29.75,NNW,330,10.0,12.0,70,0.00,,,0.00,0,Wunderground v.1.15,2013-02-20 07:15:00,
2013-02-20 02:20:00,35.6,26.4,29.75,WNW,294,18.0,18.0,69,0.00,,,0.00,0,Wunderground v.1.15,2013-02-20 07:20:00,
2013-02-20 02:25:00,35.6,26.4,29.75,NW,310,9.0,18.0,69,0.00,,,0.00,0,Wunderground v.1.15,2013-02-20 07:25:00,
2013-02-20 02:30:00,35.5,26.0,29.75,NW,316,5.0,9.0,68,0.00,,,0.00,0,Wunderground v.1.15,2013-02-20 07:30:00,
2013-02-20 02:36:00,35.3,25.8,29.76,NW,315,6.0,12.0,68,0.00,,,0.00,0,Wunderground v.1.15,2013-02-20 07:36:00,
2013-02-20 02:41:00,35.2,25.3,29.76,WNW,302,4.0,16.0,67,0.00,,,0.00,0,Wunderground v.1.15,2013-02-20 07:41:00,
2013-02-20 02:46:00,35.1,24.5,29.76,NW,321,3.0,19.0,65,0.00,,,0.00,0,Wunderground v.1.15,2013-02-20 07:46:00,
2013-02-20 02:51:00,35.1,24.5,29.76,NNW,338,14.0,16.0,65,0.00,,,0.00,0,Wunderground v.1.15,2013-02-20 07:51:00,
2013-02-20 02:56:00,34.9,23.9,29.77,NW,304,9.0,16.0,64,0.00,,,0.00,0,Wunderground v.1.15,2013-02-20 07:56:00,
2013-02-20 03:01:00,34.8,24.2,29.77,NW,316,5.0,6.0,65,0.00,,,0.00,0,Wunderground v.1.15,2013-02-20 08:01:00,
2013-02-20 03:06:00,34.6,23.3,29.77,NW,319,2.0,14.0,63,0.00,,,0.00,0,Wunderground v.1.15,2013-02-20 08:06:00,
2013-02-20 03:11:00,34.4,22.7,29.77,NW,315,4.0,13.0,62,0.00,,,0.00,0,Wunderground v.1.15,2013-02-20 08:11:00,
2013-02-20 03:16:00,34.3,22.2,29.77,WNW,288,4.0,18.0,61,0.00,,,0.00,0,Wunderground v.1.15,2013-02-20 08:16:00,
2013-02-20 03:21:00,34.2,22.1,29.77,NNW,328,6.0,14.0,61,0.00,,,0.00,0,Wunderground v.1.15,2013-02-20 08:21:00,
2013-02-20 03:26:00,34.1,22.0,29.77,NW,318,4.0,14.0,61,0.00,,,0.00,0,Wunderground v.1.15,2013-02-20 08:26:00,
2013-02-20 03:31:00,34.0,22.0,29.77,NW,317,5.0,14.0,61,0.00,,,0.00,0,Wunderground v.1.15,2013-02-20 08:31:00,
2013-02-20 03:36:00,33.9,21.9,29.77,NW,323,1.0,14.0,61,0.00,,,0.00,0,Wunderground v.1.15,2013-02-20 08:36:00,
2013-02-20 03:41:00,33.7,21.7,29.77,NW,319,12.0,12.0,61,0.00,,,0.00,0,Wunderground v.1.15,2013-02-20 08:41:00,
2013-02-20 03:46:00,33.7,21.7,29.77,NW,320,3.0,17.0,61,0.00,,,0.00,0,Wunderground v.1.15,2013-02-20 08:46:00,
2013-02-20 03:51:00,33.5,21.5,29.77,NNW,338,5.0,11.0,61,0.00,,,0.00,0,Wunderground v.1.15,2013-02-20 08:51:00,
2013-02-20 03:56:00,33.4,21.4,29.77,NW,305,11.0,13.0,61,0.00,,,0.00,0,Wunderground v.1.15,2013-02-20 08:56:00,
2013-02-20 04:01:00,33.2,21.6,29.78,NNW,327,3.0,11.0,62,0.00,,,0.00,0,Wunderground v.1.15,2013-02-20 09:01:00,
2013-02-20 04:06:00,33.0,21.4,29.78,NW,312,4.0,18.0,62,0.00,,,0.00,0,Wunderground v.1.15,2013-02-20 09:06:00,
2013-02-20 04:11:00,33.0,21.4,29.78,NW,305,5.0,9.0,62,0.00,,,0.00,0,Wunderground v.1.15,2013-02-20 09:11:00,
2013-02-20 04:16:00,32.9,21.3,29.78,NW,310,8.0,13.0,62,0.00,,,0.00,0,Wunderground v.1.15,2013-02-20 09:16:00,
2013-02-20 04:21:00,32.8,21.6,29.78,NW,307,11.0,11.0,63,0.00,,,0.00,0,Wunderground v.1.15,2013-02-20 09:21:00,
2013-02-20 04:26:00,32.6,21.4,29.78,WNW,302,0.0,12.0,63,0.00,,,0.00,0,Wunderground v.1.15,2013-02-20 09:26:00,
2013-02-20 04:31:00,32.5,21.3,29.79,NW,308,10.0,13.0,63,0.00,,,0.00,0,Wunderground v.1.15,2013-02-20 09:31:00,
2013-02-20 04:36:00,32.5,21.3,29.79,WNW,292,5.0,13.0,63,0.00,,,0.00,0,Wunderground v.1.15,2013-02-20 09:36:00,
2013-02-20 04:41:00,32.4,21.6,29.79,NNW,344,5.0,12.0,64,0.00,,,0.00,0,Wunderground v.1.15,2013-02-20 09:41:00,
2013-02-20 04:46:00,32.3,21.5,29.79,NW,315,1.0,12.0,64,0.00,,,0.00,0,Wunderground v.1.15,2013-02-20 09:46:00,
2013-02-20 04:51:00,32.2,21.4,29.79,West,279,0.0,5.0,64,0.00,,,0.00,0,Wunderground v.1.15,2013-02-20 09:51:00,
2013-02-20 04:56:00,32.1,21.7,29.79,WNW,287,5.0,9.0,65,0.00,,,0.00,0,Wunderground v.1.15,2013-02-20 09:56:00,
2013-02-20 05:01:00,32.1,21.7,29.79,NNW,329,5.0,10.0,65,0.00,,,0.00,0,Wunderground v.1.15,2013-02-20 10:01:00,
2013-02-20 05:06:00,32.0,21.6,29.79,NW,319,4.0,10.0,65,0.00,,,0.00,0,Wunderground v.1.15,2013-02-20 10:06:00,
2013-02-20 05:11:00,31.9,21.5,29.79,NW,304,0.0,7.0,65,0.00,,,0.00,0,Wunderground v.1.15,2013-02-20 10:11:00,
2013-02-20 05:16:00,31.8,21.4,29.80,NW,311,1.0,7.0,65,0.00,,,0.00,0,Wunderground v.1.15,2013-02-20 10:16:00,
2013-02-20 05:21:00,31.8,21.7,29.79,NW,319,1.0,11.0,66,0.00,,,0.00,0,Wunderground v.1.15,2013-02-20 10:21:00,
2013-02-20 05:26:00,31.8,21.7,29.79,NW,321,4.0,11.0,66,0.00,,,0.00,0,Wunderground v.1.15,2013-02-20 10:26:00,
2013-02-20 05:31:00,31.7,21.6,29.80,NW,311,9.0,10.0,66,0.00,,,0.00,0,Wunderground v.1.15,2013-02-20 10:31:00,
2013-02-20 05:36:00,31.8,21.7,29.80,NW,308,1.0,10.0,66,0.00,,,0.00,0,Wunderground v.1.15,2013-02-20 10:36:00,
2013-02-20 05:41:00,31.8,21.7,29.80,NW,313,4.0,14.0,66,0.00,,,0.00,0,Wunderground v.1.15,2013-02-20 10:41:00,
2013-02-20 05:46:00,31.8,22.1,29.80,NW,311,4.0,14.0,67,0.00,,,0.00,0,Wunderground v.1.15,2013-02-20 10:46:00,
2013-02-20 05:51:00,31.8,22.1,29.80,NW,309,3.0,12.0,67,0.00,,,0.00,0,Wunderground v.1.15,2013-02-20 10:51:00,
2013-02-20 05:56:00,31.9,22.2,29.80,NW,308,6.0,12.0,67,0.00,,,0.00,0,Wunderground v.1.15,2013-02-20 10:56:00,
2013-02-20 06:01:00,32.0,22.3,29.80,NW,311,0.0,6.0,67,0.00,,,0.00,0,Wunderground v.1.15,2013-02-20 11:01:00,
2013-02-20 06:06:00,32.1,22.4,29.81,NNW,338,2.0,16.0,67,0.00,,,0.00,0,Wunderground v.1.15,2013-02-20 11:06:00,
2013-02-20 06:11:00,32.3,22.2,29.81,NW,315,8.0,12.0,66,0.00,,,0.00,0,Wunderground v.1.15,2013-02-20 11:11:00,
2013-02-20 06:16:00,32.4,22.7,29.81,WNW,298,6.0,20.0,67,0.00,,,0.00,0,Wunderground v.1.15,2013-02-20 11:16:00,
2013-02-20 06:21:00,32.5,22.8,29.82,NNW,328,4.0,16.0,67,0.00,,,0.00,0,Wunderground v.1.15,2013-02-20 11:21:00,
2013-02-20 06:26:00,32.5,22.8,29.82,WNW,300,10.0,16.0,67,0.00,,,0.00,0,Wunderground v.1.15,2013-02-20 11:26:00,
2013-02-20 06:31:00,32.4,22.7,29.82,NW,306,7.0,12.0,67,0.00,,,0.00,0,Wunderground v.1.15,2013-02-20 11:31:00,
2013-02-20 06:36:00,32.2,21.7,29.83,WNW,302,14.0,18.0,65,0.00,,,0.00,0,Wunderground v.1.15,2013-02-20 11:36:00,
2013-02-20 06:41:00,32.1,21.3,29.83,NW,321,5.0,17.0,64,0.00,,,0.00,0,Wunderground v.1.15,2013-02-20 11:41:00,
2013-02-20 06:47:00,31.9,20.3,29.83,NW,309,20.0,25.0,62,0.00,,,0.00,5,Wunderground v.1.15,2013-02-20 11:47:00,
2013-02-20 06:51:00,31.7,19.4,29.83,NW,321,3.0,16.0,60,0.00,,,0.00,7,Wunderground v.1.15,2013-02-20 11:51:00,
2013-02-20 06:57:00,31.6,18.9,29.83,NNW,333,6.0,16.0,59,0.00,,,0.00,9,Wunderground v.1.15,2013-02-20 11:57:00,
2013-02-20 07:02:00,31.4,17.9,29.83,NW,320,10.0,18.0,57,0.00,,,0.00,12,Wunderground v.1.15,2013-02-20 12:02:00,
2013-02-20 07:07:00,31.4,17.5,29.84,NW,309,13.0,20.0,56,0.00,,,0.00,16,Wunderground v.1.15,2013-02-20 12:07:00,
2013-02-20 07:12:00,31.3,17.4,29.84,NW,307,4.0,19.0,56,0.00,,,0.00,19,Wunderground v.1.15,2013-02-20 12:12:00,
2013-02-20 07:17:00,31.2,17.7,29.85,NW,321,3.0,19.0,57,0.00,,,0.00,21,Wunderground v.1.15,2013-02-20 12:17:00,
2013-02-20 07:22:00,31.2,17.7,29.85,NW,313,4.0,15.0,57,0.00,,,0.00,25,Wunderground v.1.15,2013-02-20 12:22:00,
2013-02-20 07:27:00,31.1,17.6,29.85,NW,314,3.0,18.0,57,0.00,,,0.00,26,Wunderground v.1.15,2013-02-20 12:27:00,
2013-02-20 07:32:00,31.0,17.5,29.86,NW,318,4.0,14.0,57,0.00,,,0.00,30,Wunderground v.1.15,2013-02-20 12:32:00,
2013-02-20 07:37:00,31.0,17.9,29.86,West,279,6.0,17.0,58,0.00,,,0.00,33,Wunderground v.1.15,2013-02-20 12:37:00,
2013-02-20 07:42:00,30.9,17.4,29.86,WNW,296,16.0,16.0,57,0.00,,,0.00,33,Wunderground v.1.15,2013-02-20 12:42:00,
2013-02-20 07:47:00,30.9,17.8,29.86,NW,310,1.0,16.0,58,0.00,,,0.00,39,Wunderground v.1.15,2013-02-20 12:47:00,
2013-02-20 07:52:00,30.9,17.4,29.86,WNW,297,8.0,14.0,57,0.00,,,0.00,42,Wunderground v.1.15,2013-02-20 12:52:00,
2013-02-20 07:57:00,30.9,17.4,29.87,NW,324,17.0,17.0,57,0.00,,,0.00,54,Wunderground v.1.15,2013-02-20 12:57:00,
2013-02-20 08:02:00,30.9,17.4,29.87,NW,315,0.0,11.0,57,0.00,,,0.00,60,Wunderground v.1.15,2013-02-20 13:02:00,
2013-02-20 08:07:00,30.9,17.4,29.88,NW,323,8.0,18.0,57,0.00,,,0.00,47,Wunderground v.1.15,2013-02-20 13:07:00,
2013-02-20 08:12:00,31.0,17.5,29.87,NNW,340,5.0,17.0,57,0.00,,,0.00,54,Wunderground v.1.15,2013-02-20 13:12:00,
2013-02-20 08:17:00,31.0,17.5,29.87,NNW,328,12.0,17.0,57,0.00,,,0.00,67,Wunderground v.1.15,2013-02-20 13:17:00,
2013-02-20 08:22:00,31.0,17.1,29.87,NW,315,5.0,16.0,56,0.00,,,0.00,67,Wunderground v.1.15,2013-02-20 13:22:00,
2013-02-20 08:27:00,31.1,17.2,29.87,NNW,333,10.0,18.0,56,0.00,,,0.00,90,Wunderground v.1.15,2013-02-20 13:27:00,
2013-02-20 08:32:00,31.2,17.3,29.87,NNW,331,5.0,16.0,56,0.00,,,0.00,67,Wunderground v.1.15,2013-02-20 13:32:00,
2013-02-20 08:37:00,31.2,17.7,29.87,NW,321,9.0,16.0,57,0.00,,,0.00,88,Wunderground v.1.15,2013-02-20 13:37:00,
2013-02-20 08:42:00,31.4,17.5,29.88,WNW,300,7.0,13.0,56,0.00,,,0.00,76,Wunderground v.1.15,2013-02-20 13:42:00,
2013-02-20 08:47:00,31.6,17.7,29.88,NNW,338,4.0,27.0,56,0.00,,,0.00,113,Wunderground v.1.15,2013-02-20 13:47:00,
2013-02-20 08:52:00,31.8,17.9,29.88,NNW,336,12.0,15.0,56,0.00,,,0.00,81,Wunderground v.1.15,2013-02-20 13:52:00,
2013-02-20 08:57:00,31.5,17.2,29.88,NNW,334,2.0,18.0,55,0.00,,,0.00,69,Wunderground v.1.15,2013-02-20 13:57:00,
2013-02-20 09:02:00,31.5,17.6,29.87,WNW,284,4.0,16.0,56,0.00,,,0.00,69,Wunderground v.1.15,2013-02-20 14:02:00,
2013-02-20 09:07:00,31.7,17.8,29.87,NNW,329,4.0,19.0,56,0.00,,,0.00,132,Wunderground v.1.15,2013-02-20 14:07:00,
2013-02-20 09:12:00,31.9,18.0,29.87,NW,321,3.0,13.0,56,0.00,,,0.00,285,Wunderground v.1.15,2013-02-20 14:12:00,
2013-02-20 09:17:00,32.2,18.2,29.87,NNW,333,10.0,19.0,56,0.00,,,0.00,408,Wunderground v.1.15,2013-02-20 14:17:00,
2013-02-20 09:22:00,32.4,18.4,29.86,NW,309,10.0,14.0,56,0.00,,,0.00,411,Wunderground v.1.15,2013-02-20 14:22:00,
2013-02-20 09:27:00,32.6,18.6,29.86,NNW,329,4.0,17.0,56,0.00,,,0.00,450,Wunderground v.1.15,2013-02-20 14:27:00,
2013-02-20 09:32:00,32.8,18.8,29.86,WNW,292,5.0,13.0,56,0.00,,,0.00,438,Wunderground v.1.15,2013-02-20 14:32:00,
2013-02-20 09:37:00,32.9,18.5,29.86,WNW,302,6.0,16.0,55,0.00,,,0.00,473,Wunderground v.1.15,2013-02-20 14:37:00,
2013-02-20 09:42:00,33.1,18.7,29.86,West,269,5.0,9.0,55,0.00,,,0.00,494,Wunderground v.1.15,2013-02-20 14:42:00,
2013-02-20 09:47:00,33.5,19.5,29.86,NW,319,4.0,14.0,56,0.00,,,0.00,563,Wunderground v.1.15,2013-02-20 14:47:00,
2013-02-20 09:52:00,33.9,19.4,29.86,West,269,13.0,16.0,55,0.00,,,0.00,357,Wunderground v.1.15,2013-02-20 14:52:00,
2013-02-20 09:57:00,33.8,19.7,29.86,NW,307,9.0,16.0,56,0.00,,,0.00,179,Wunderground v.1.15,2013-02-20 14:57:00,
2013-02-20 10:02:00,33.7,19.7,29.87,NW,313,4.0,13.0,56,0.00,,,0.00,91,Wunderground v.1.15,2013-02-20 15:02:00,
2013-02-20 10:07:00,33.4,19.8,29.87,NW,311,4.0,13.0,57,0.00,,,0.00,167,Wunderground v.1.15,2013-02-20 15:07:00,
2013-02-20 10:12:00,33.0,19.0,29.87,NW,319,5.0,18.0,56,0.00,,,0.00,174,Wunderground v.1.15,2013-02-20 15:12:00,
2013-02-20 10:17:00,32.6,19.0,29.87,NW,313,2.0,18.0,57,0.00,,,0.00,192,Wunderground v.1.15,2013-02-20 15:17:00,
2013-02-20 10:22:00,32.3,19.2,29.87,WNW,298,2.0,14.0,58,0.00,,,0.00,190,Wunderground v.1.15,2013-02-20 15:22:00,
2013-02-20 10:27:00,32.3,19.6,29.86,WNW,302,1.0,14.0,59,0.00,,,0.00,148,Wunderground v.1.15,2013-02-20 15:27:00,
2013-02-20 10:32:00,32.3,19.6,29.87,WNW,299,0.0,12.0,59,0.00,,,0.00,158,Wunderground v.1.15,2013-02-20 15:32:00,
2013-02-20 10:37:00,32.1,19.0,29.86,West,268,12.0,15.0,58,0.00,,,0.00,246,Wunderground v.1.15,2013-02-20 15:37:00,
2013-02-20 10:42:00,32.0,18.1,29.87,NW,306,8.0,21.0,56,0.00,,,0.00,241,Wunderground v.1.15,2013-02-20 15:42:00,
2013-02-20 10:47:00,32.3,18.3,29.87,NW,321,11.0,21.0,56,0.00,,,0.00,260,Wunderground v.1.15,2013-02-20 15:47:00,
2013-02-20 10:53:00,32.4,18.4,29.87,NW,323,10.0,19.0,56,0.00,,,0.00,239,Wunderground v.1.15,2013-02-20 15:53:00,
2013-02-20 10:58:00,32.2,17.4,29.86,NW,305,3.0,19.0,54,0.00,,,0.00,253,Wunderground v.1.15,2013-02-20 15:58:00,
2013-02-20 11:03:00,32.2,17.4,29.87,NNW,344,11.0,20.0,54,0.00,,,0.00,301,Wunderground v.1.15,2013-02-20 16:03:00,
2013-02-20 11:08:00,32.3,17.5,29.86,WNW,285,3.0,20.0,54,0.00,,,0.00,253,Wunderground v.1.15,2013-02-20 16:08:00,
2013-02-20 11:13:00,32.7,17.9,29.86,NW,324,4.0,15.0,54,0.00,,,0.00,422,Wunderground v.1.15,2013-02-20 16:13:00,
2013-02-20 11:18:00,33.6,18.3,29.86,WNW,300,15.0,18.0,53,0.00,,,0.00,265,Wunderground v.1.15,2013-02-20 16:18:00,
2013-02-20 11:23:00,33.7,17.0,29.86,NNW,329,9.0,17.0,50,0.00,,,0.00,283,Wunderground v.1.15,2013-02-20 16:23:00,
2013-02-20 11:28:00,33.5,17.3,29.86,NW,326,7.0,17.0,51,0.00,,,0.00,223,Wunderground v.1.15,2013-02-20 16:28:00,
2013-02-20 11:33:00,33.6,17.8,29.86,NNW,338,6.0,15.0,52,0.00,,,0.00,234,Wunderground v.1.15,2013-02-20 16:33:00,
2013-02-20 11:38:00,33.9,17.7,29.86,NW,323,11.0,16.0,51,0.00,,,0.00,773,Wunderground v.1.15,2013-02-20 16:38:00,
2013-02-20 11:44:00,33.8,18.5,29.86,WNW,294,7.0,15.0,53,0.00,,,0.00,738,Wunderground v.1.15,2013-02-20 16:44:00,
2013-02-20 11:49:00,34.1,16.9,29.86,NNW,331,10.0,17.0,49,0.00,,,0.00,738,Wunderground v.1.15,2013-02-20 16:49:00,
2013-02-20 11:54:00,33.8,16.2,29.85,NW,310,11.0,19.0,48,0.00,,,0.00,547,Wunderground v.1.15,2013-02-20 16:54:00,
2013-02-20 11:59:00,33.4,16.3,29.85,NNW,333,8.0,20.0,49,0.00,,,0.00,795,Wunderground v.1.15,2013-02-20 16:59:00,
2013-02-20 12:04:00,33.8,17.6,29.85,WNW,286,14.0,14.0,51,0.00,,,0.00,766,Wunderground v.1.15,2013-02-20 17:04:00,
2013-02-20 12:09:00,33.8,16.6,29.86,NNW,331,11.0,17.0,49,0.00,,,0.00,471,Wunderground v.1.15,2013-02-20 17:09:00,
2013-02-20 12:14:00,33.5,16.8,29.86,NNW,332,7.0,16.0,50,0.00,,,0.00,768,Wunderground v.1.15,2013-02-20 17:14:00,
2013-02-20 12:19:00,34.3,17.6,29.85,WNW,294,7.0,18.0,50,0.00,,,0.00,758,Wunderground v.1.15,2013-02-20 17:19:00,
2013-02-20 12:24:00,34.6,16.9,29.85,WNW,291,11.0,24.0,48,0.00,,,0.00,744,Wunderground v.1.15,2013-02-20 17:24:00,
2013-02-20 12:29:00,34.5,16.3,29.85,WNW,296,7.0,24.0,47,0.00,,,0.00,179,Wunderground v.1.15,2013-02-20 17:29:00,
2013-02-20 12:34:00,34.0,15.9,29.85,NNW,334,2.0,16.0,47,0.00,,,0.00,728,Wunderground v.1.15,2013-02-20 17:34:00,
2013-02-20 12:39:00,34.2,16.5,29.85,NW,313,7.0,20.0,48,0.00,,,0.00,789,Wunderground v.1.15,2013-02-20 17:39:00,
2013-02-20 12:44:00,34.3,16.1,29.85,NNW,336,5.0,17.0,47,0.00,,,0.00,174,Wunderground v.1.15,2013-02-20 17:44:00,
2013-02-20 12:49:00,34.6,16.9,29.85,NNW,330,5.0,18.0,48,0.00,,,0.00,744,Wunderground v.1.15,2013-02-20 17:49:00,
2013-02-20 12:54:00,34.9,16.7,29.85,NW,304,7.0,17.0,47,0.00,,,0.00,756,Wunderground v.1.15,2013-02-20 17:54:00,
2013-02-20 12:59:00,35.0,16.8,29.85,NW,323,3.0,18.0,47,0.00,,,0.00,279,Wunderground v.1.15,2013-02-20 17:59:00,
2013-02-20 13:05:00,35.1,16.9,29.84,NW,309,11.0,12.0,47,0.00,,,0.00,756,Wunderground v.1.15,2013-02-20 18:05:00,
2013-02-20 13:10:00,35.0,16.8,29.84,NW,314,9.0,10.0,47,0.00,,,0.00,817,Wunderground v.1.15,2013-02-20 18:10:00,
2013-02-20 13:15:00,35.5,17.7,29.85,WNW,288,12.0,20.0,48,0.00,,,0.00,731,Wunderground v.1.15,2013-02-20 18:15:00,
2013-02-20 13:20:00,35.4,16.1,29.85,WNW,284,18.0,18.0,45,0.00,,,0.00,309,Wunderground v.1.15,2013-02-20 18:20:00,
2013-02-20 13:25:00,35.2,16.0,29.85,NW,322,11.0,24.0,45,0.00,,,0.00,246,Wunderground v.1.15,2013-02-20 18:25:00,
2013-02-20 13:30:00,34.7,16.0,29.85,WNW,303,7.0,16.0,46,0.00,,,0.00,239,Wunderground v.1.15,2013-02-20 18:30:00,
2013-02-20 13:35:00,34.5,15.8,29.85,West,279,5.0,21.0,46,0.00,,,0.00,229,Wunderground v.1.15,2013-02-20 18:35:00,
2013-02-20 13:41:00,34.7,17.0,29.85,NW,324,6.0,15.0,48,0.00,,,0.00,265,Wunderground v.1.15,2013-02-20 18:41:00,
2013-02-20 13:45:00,34.6,16.4,29.85,NW,314,14.0,19.0,47,0.00,,,0.00,250,Wunderground v.1.15,2013-02-20 18:45:00,
2013-02-20 13:50:00,34.3,16.1,29.85,NW,306,8.0,8.0,47,0.00,,,0.00,202,Wunderground v.1.15,2013-02-20 18:50:00,
2013-02-20 13:55:00,34.1,15.9,29.84,NNW,345,8.0,19.0,47,0.00,,,0.00,207,Wunderground v.1.15,2013-02-20 18:55:00,
2013-02-20 14:00:00,34.3,16.6,29.84,NNW,331,16.0,17.0,48,0.00,,,0.00,773,Wunderground v.1.15,2013-02-20 19:00:00,
2013-02-20 14:05:00,34.7,17.0,29.84,NNW,328,2.0,17.0,48,0.00,,,0.00,752,Wunderground v.1.15,2013-02-20 19:05:00,
2013-02-20 14:11:00,35.1,16.4,29.85,WNW,296,8.0,17.0,46,0.00,,,0.00,202,Wunderground v.1.15,2013-02-20 19:11:00,
2013-02-20 14:16:00,34.6,16.4,29.85,NW,311,6.0,18.0,47,0.00,,,0.00,158,Wunderground v.1.15,2013-02-20 19:16:00,
2013-02-20 14:21:00,34.1,15.5,29.84,NW,315,6.0,12.0,46,0.00,,,0.00,158,Wunderground v.1.15,2013-02-20 19:21:00,
2013-02-20 14:26:00,33.9,15.8,29.85,NNE,17,7.0,19.0,47,0.00,,,0.00,195,Wunderground v.1.15,2013-02-20 19:26:00,
2013-02-20 14:31:00,33.8,15.7,29.85,NW,321,1.0,9.0,47,0.00,,,0.00,158,Wunderground v.1.15,2013-02-20 19:31:00,
2013-02-20 14:36:00,33.7,16.1,29.85,North,355,3.0,17.0,48,0.00,,,0.00,139,Wunderground v.1.15,2013-02-20 19:36:00,
2013-02-20 14:41:00,33.3,15.2,29.86,WNW,288,13.0,19.0,47,0.00,,,0.00,192,Wunderground v.1.15,2013-02-20 19:41:00,
2013-02-20 14:46:00,33.0,14.9,29.86,NW,310,15.0,25.0,47,0.00,,,0.00,176,Wunderground v.1.15,2013-02-20 19:46:00,
2013-02-20 14:51:00,32.8,15.2,29.86,North,355,17.0,23.0,48,0.00,,,0.00,218,Wunderground v.1.15,2013-02-20 19:51:00,
2013-02-20 14:56:00,32.9,15.3,29.86,NW,317,5.0,23.0,48,0.00,,,0.00,197,Wunderground v.1.15,2013-02-20 19:56:00,
2013-02-20 15:01:00,32.9,15.3,29.86,NW,319,15.0,15.0,48,0.00,,,0.00,271,Wunderground v.1.15,2013-02-20 20:01:00,
2013-02-20 15:06:00,33.2,15.6,29.86,NW,325,5.0,17.0,48,0.00,,,0.00,163,Wunderground v.1.15,2013-02-20 20:06:00,
2013-02-20 15:11:00,33.0,14.9,29.87,NNW,329,6.0,14.0,47,0.00,,,0.00,135,Wunderground v.1.15,2013-02-20 20:11:00,
2013-02-20 15:16:00,32.8,15.2,29.87,NNW,329,2.0,18.0,48,0.00,,,0.00,127,Wunderground v.1.15,2013-02-20 20:16:00,
2013-02-20 15:21:00,32.8,15.2,29.86,NW,311,7.0,11.0,48,0.00,,,0.00,246,Wunderground v.1.15,2013-02-20 20:21:00,
2013-02-20 15:26:00,32.8,15.2,29.87,NW,315,7.0,18.0,48,0.00,,,0.00,91,Wunderground v.1.15,2013-02-20 20:26:00,
2013-02-20 15:31:00,32.8,14.8,29.87,WNW,295,11.0,23.0,47,0.00,,,0.00,181,Wunderground v.1.15,2013-02-20 20:31:00,
2013-02-20 15:36:00,32.6,14.1,29.87,NW,320,4.0,23.0,46,0.00,,,0.00,128,Wunderground v.1.15,2013-02-20 20:36:00,
2013-02-20 15:41:00,32.6,14.1,29.88,NW,314,12.0,20.0,46,0.00,,,0.00,118,Wunderground v.1.15,2013-02-20 20:41:00,
2013-02-20 15:46:00,32.5,14.5,29.88,NW,315,9.0,20.0,47,0.00,,,0.00,83,Wunderground v.1.15,2013-02-20 20:46:00,
2013-02-20 15:52:00,32.2,13.7,29.88,NW,320,15.0,15.0,46,0.00,,,0.00,74,Wunderground v.1.15,2013-02-20 20:52:00,
2013-02-20 15:57:00,31.9,13.9,29.88,NW,305,10.0,19.0,47,0.00,,,0.00,70,Wunderground v.1.15,2013-02-20 20:57:00,
2013-02-20 16:02:00,31.7,13.7,29.88,NW,310,11.0,22.0,47,0.00,,,0.00,155,Wunderground v.1.15,2013-02-20 21:02:00,
2013-02-20 16:07:00,31.8,13.3,29.89,WNW,301,9.0,23.0,46,0.00,,,0.00,123,Wunderground v.1.15,2013-02-20 21:07:00,
2013-02-20 16:12:00,31.9,13.4,29.89,NW,326,10.0,18.0,46,0.00,,,0.00,105,Wunderground v.1.15,2013-02-20 21:12:00,
2013-02-20 16:17:00,31.8,13.3,29.89,NNW,329,5.0,19.0,46,0.00,,,0.00,81,Wunderground v.1.15,2013-02-20 21:17:00,
2013-02-20 16:22:00,31.6,13.7,29.89,West,276,14.0,19.0,47,0.00,,,0.00,81,Wunderground v.1.15,2013-02-20 21:22:00,
2013-02-20 16:27:00,31.5,13.6,29.89,NNW,336,10.0,19.0,47,0.00,,,0.00,54,Wunderground v.1.15,2013-02-20 21:27:00,
2013-02-20 16:32:00,31.3,13.9,29.89,NW,322,19.0,19.0,48,0.00,,,0.00,95,Wunderground v.1.15,2013-02-20 21:32:00,
2013-02-20 16:37:00,31.1,13.7,29.90,NW,323,7.0,19.0,48,0.00,,,0.00,42,Wunderground v.1.15,2013-02-20 21:37:00,
2013-02-20 16:42:00,31.0,14.0,29.90,NW,316,13.0,18.0,49,0.00,,,0.00,47,Wunderground v.1.15,2013-02-20 21:42:00,
2013-02-20 16:47:00,30.8,13.9,29.90,WNW,302,17.0,20.0,49,0.00,,,0.00,56,Wunderground v.1.15,2013-02-20 21:47:00,
2013-02-20 16:52:00,30.8,13.9,29.90,NNW,338,7.0,17.0,49,0.00,,,0.00,49,Wunderground v.1.15,2013-02-20 21:52:00,
2013-02-20 16:58:00,30.7,13.8,29.90,NNW,344,4.0,19.0,49,0.00,,,0.00,32,Wunderground v.1.15,2013-02-20 21:58:00,
2013-02-20 17:03:00,30.7,13.8,29.91,WNW,292,3.0,16.0,49,0.00,,,0.00,40,Wunderground v.1.15,2013-02-20 22:03:00,
2013-02-20 17:08:00,30.6,13.7,29.91,WNW,284,10.0,19.0,49,0.00,,,0.00,21,Wunderground v.1.15,2013-02-20 22:08:00,
2013-02-20 17:13:00,30.5,14.0,29.91,NW,316,11.0,18.0,50,0.00,,,0.00,19,Wunderground v.1.15,2013-02-20 22:13:00,
2013-02-20 17:18:00,30.3,13.9,29.91,NNW,333,6.0,20.0,50,0.00,,,0.00,16,Wunderground v.1.15,2013-02-20 22:18:00,
2013-02-20 17:23:00,30.2,13.8,29.91,NW,311,8.0,15.0,50,0.00,,,0.00,12,Wunderground v.1.15,2013-02-20 22:23:00,
2013-02-20 17:28:00,30.1,14.1,29.92,WNW,302,1.0,15.0,51,0.00,,,0.00,7,Wunderground v.1.15,2013-02-20 22:28:00,
2013-02-20 17:33:00,30.0,14.0,29.92,NW,315,7.0,19.0,51,0.00,,,0.00,5,Wunderground v.1.15,2013-02-20 22:33:00,
2013-02-20 17:38:00,29.9,14.4,29.92,NW,325,4.0,19.0,52,0.00,,,0.00,0,Wunderground v.1.15,2013-02-20 22:38:00,
2013-02-20 17:43:00,29.8,14.7,29.92,NNW,329,9.0,16.0,53,0.00,,,0.00,0,Wunderground v.1.15,2013-02-20 22:43:00,
2013-02-20 17:48:00,29.7,14.2,29.93,West,271,7.0,16.0,52,0.00,,,0.00,0,Wunderground v.1.15,2013-02-20 22:48:00,
2013-02-20 17:53:00,29.6,14.1,29.93,WNW,302,6.0,16.0,52,0.00,,,0.00,0,Wunderground v.1.15,2013-02-20 22:53:00,
2013-02-20 17:58:00,29.5,14.5,29.93,NW,304,10.0,17.0,53,0.00,,,0.00,0,Wunderground v.1.15,2013-02-20 22:58:00,
2013-02-20 18:03:00,29.4,14.4,29.94,NNW,333,9.0,14.0,53,0.00,,,0.00,0,Wunderground v.1.15,2013-02-20 23:03:00,
2013-02-20 18:08:00,29.3,13.8,29.93,NW,309,15.0,20.0,52,0.00,,,0.00,0,Wunderground v.1.15,2013-02-20 23:08:00,
2013-02-20 18:13:00,29.3,14.3,29.93,WNW,294,4.0,16.0,53,0.00,,,0.00,0,Wunderground v.1.15,2013-02-20 23:13:00,
2013-02-20 18:18:00,29.3,14.3,29.93,NW,311,15.0,16.0,53,0.00,,,0.00,0,Wunderground v.1.15,2013-02-20 23:18:00,
2013-02-20 18:23:00,29.2,13.7,29.93,WNW,302,8.0,19.0,52,0.00,,,0.00,0,Wunderground v.1.15,2013-02-20 23:23:00,
2013-02-20 18:28:00,29.2,14.2,29.94,WNW,296,9.0,19.0,53,0.00,,,0.00,0,Wunderground v.1.15,2013-02-20 23:28:00,
2013-02-20 18:34:00,29.1,14.1,29.94,NW,315,3.0,21.0,53,0.00,,,0.00,0,Wunderground v.1.15,2013-02-20 23:34:00,
2013-02-20 18:39:00,29.0,14.0,29.94,NW,309,6.0,21.0,53,0.00,,,0.00,0,Wunderground v.1.15,2013-02-20 23:39:00,
2013-02-20 18:44:00,29.0,14.0,29.94,NNW,327,5.0,16.0,53,0.00,,,0.00,0,Wunderground v.1.15,2013-02-20 23:44:00,
2013-02-20 18:49:00,28.9,13.9,29.95,NNW,333,10.0,16.0,53,0.00,,,0.00,0,Wunderground v.1.15,2013-02-20 23:49:00,
2013-02-20 18:54:00,28.9,14.3,29.94,WNW,288,3.0,13.0,54,0.00,,,0.00,0,Wunderground v.1.15,2013-02-20 23:54:00,
2013-02-20 18:59:00,28.8,14.2,29.95,NNW,331,11.0,13.0,54,0.00,,,0.00,0,Wunderground v.1.15,2013-02-20 23:59:00,
2013-02-20 19:04:00,28.8,14.2,29.95,WNW,294,7.0,18.0,54,0.00,,,0.00,0,Wunderground v.1.15,2013-02-21 00:04:00,
2013-02-20 19:10:00,28.7,14.1,29.95,WNW,295,13.0,13.0,54,0.00,,,0.00,0,Wunderground v.1.15,2013-02-21 00:10:00,
2013-02-20 19:15:00,28.7,14.1,29.95,NW,305,4.0,17.0,54,0.00,,,0.00,0,Wunderground v.1.15,2013-02-21 00:15:00,
2013-02-20 19:20:00,28.7,14.1,29.95,West,265,6.0,8.0,54,0.00,,,0.00,0,Wunderground v.1.15,2013-02-21 00:20:00,
2013-02-20 19:25:00,28.7,14.1,29.95,NW,326,12.0,17.0,54,0.00,,,0.00,0,Wunderground v.1.15,2013-02-21 00:25:00,
2013-02-20 19:30:00,28.7,14.1,29.95,NW,308,9.0,13.0,54,0.00,,,0.00,0,Wunderground v.1.15,2013-02-21 00:30:00,
2013-02-20 19:35:00,28.6,14.0,29.95,NNW,329,6.0,13.0,54,0.00,,,0.00,0,Wunderground v.1.15,2013-02-21 00:35:00,
2013-02-20 19:40:00,28.6,14.0,29.95,NNW,342,7.0,8.0,54,0.00,,,0.00,0,Wunderground v.1.15,2013-02-21 00:40:00,
2013-02-20 19:45:00,28.6,14.5,29.94,NNW,338,10.0,16.0,55,0.00,,,0.00,0,Wunderground v.1.15,2013-02-21 00:45:00,
2013-02-20 19:50:00,28.6,14.5,29.95,WNW,282,9.0,11.0,55,0.00,,,0.00,0,Wunderground v.1.15,2013-02-21 00:50:00,
2013-02-20 19:55:00,28.5,14.4,29.95,NW,316,7.0,18.0,55,0.00,,,0.00,0,Wunderground v.1.15,2013-02-21 00:55:00,
2013-02-20 20:00:00,28.5,14.4,29.95,WNW,300,5.0,7.0,55,0.00,,,0.00,0,Wunderground v.1.15,2013-02-21 01:00:00,
2013-02-20 20:05:00,28.5,14.4,29.95,WNW,301,7.0,18.0,55,0.00,,,0.00,0,Wunderground v.1.15,2013-02-21 01:05:00,
2013-02-20 20:10:00,28.5,14.4,29.95,WNW,300,8.0,12.0,55,0.00,,,0.00,0,Wunderground v.1.15,2013-02-21 01:10:00,
2013-02-20 20:15:00,28.4,14.3,29.95,NW,313,3.0,18.0,55,0.00,,,0.00,0,Wunderground v.1.15,2013-02-21 01:15:00,
2013-02-20 20:20:00,28.4,14.7,29.95,NW,313,10.0,10.0,56,0.00,,,0.00,0,Wunderground v.1.15,2013-02-21 01:20:00,
2013-02-20 20:25:00,28.3,14.6,29.95,WNW,298,4.0,14.0,56,0.00,,,0.00,0,Wunderground v.1.15,2013-02-21 01:25:00,
2013-02-20 20:30:00,28.3,14.6,29.96,NW,317,7.0,8.0,56,0.00,,,0.00,0,Wunderground v.1.15,2013-02-21 01:30:00,
2013-02-20 20:35:00,28.3,14.2,29.96,WNW,290,3.0,18.0,55,0.00,,,0.00,0,Wunderground v.1.15,2013-02-21 01:35:00,
2013-02-20 20:40:00,28.2,14.1,29.96,NW,310,9.0,11.0,55,0.00,,,0.00,0,Wunderground v.1.15,2013-02-21 01:40:00,
2013-02-20 20:45:00,28.2,14.1,29.97,WNW,298,4.0,14.0,55,0.00,,,0.00,0,Wunderground v.1.15,2013-02-21 01:45:00,
2013-02-20 20:50:00,28.1,14.0,29.97,NW,322,12.0,16.0,55,0.00,,,0.00,0,Wunderground v.1.15,2013-02-21 01:50:00,
2013-02-20 20:55:00,28.1,14.0,29.97,NW,326,4.0,22.0,55,0.00,,,0.00,0,Wunderground v.1.15,2013-02-21 01:55:00,
2013-02-20 21:00:00,28.1,14.0,29.97,NW,324,6.0,11.0,55,0.00,,,0.00,0,Wunderground v.1.15,2013-02-21 02:00:00,
2013-02-20 21:05:00,28.0,13.9,29.97,NW,318,5.0,14.0,55,0.00,,,0.00,0,Wunderground v.1.15,2013-02-21 02:05:00,
2013-02-20 21:10:00,28.0,13.9,29.97,NW,322,3.0,10.0,55,0.00,,,0.00,0,Wunderground v.1.15,2013-02-21 02:10:00,
2013-02-20 21:15:00,27.9,13.8,29.97,NW,304,12.0,16.0,55,0.00,,,0.00,0,Wunderground v.1.15,2013-02-21 02:15:00,
2013-02-20 21:20:00,27.9,13.8,29.97,NW,311,7.0,14.0,55,0.00,,,0.00,0,Wunderground v.1.15,2013-02-21 02:20:00,
2013-02-20 21:26:00,27.8,13.3,29.97,NW,310,3.0,18.0,54,0.00,,,0.00,0,Wunderground v.1.15,2013-02-21 02:26:00,
2013-02-20 21:31:00,27.8,13.3,29.97,WNW,302,3.0,10.0,54,0.00,,,0.00,0,Wunderground v.1.15,2013-02-21 02:31:00,
2013-02-20 21:36:00,27.8,13.3,29.97,WNW,299,13.0,15.0,54,0.00,,,0.00,0,Wunderground v.1.15,2013-02-21 02:36:00,
2013-02-20 21:41:00,27.7,13.2,29.97,NW,324,2.0,13.0,54,0.00,,,0.00,0,Wunderground v.1.15,2013-02-21 02:41:00,
2013-02-20 21:46:00,27.7,13.2,29.97,NW,318,2.0,16.0,54,0.00,,,0.00,0,Wunderground v.1.15,2013-02-21 02:46:00,
2013-02-20 21:51:00,27.6,13.1,29.98,NW,314,10.0,10.0,54,0.00,,,0.00,0,Wunderground v.1.15,2013-02-21 02:51:00,
2013-02-20 21:56:00,27.6,13.1,29.98,NNE,28,2.0,14.0,54,0.00,,,0.00,0,Wunderground v.1.15,2013-02-21 02:56:00,
2013-02-20 22:01:00,27.5,13.0,29.98,WNW,296,6.0,12.0,54,0.00,,,0.00,0,Wunderground v.1.15,2013-02-21 03:01:00,
2013-02-20 22:06:00,27.4,13.3,29.98,NW,308,10.0,15.0,55,0.00,,,0.00,0,Wunderground v.1.15,2013-02-21 03:06:00,
2013-02-20 22:11:00,27.4,13.3,29.98,NNW,331,5.0,13.0,55,0.00,,,0.00,0,Wunderground v.1.15,2013-02-21 03:11:00,
2013-02-20 22:16:00,27.4,13.3,29.98,NNW,333,3.0,14.0,55,0.00,,,0.00,0,Wunderground v.1.15,2013-02-21 03:16:00,
2013-02-20 22:21:00,27.3,13.2,29.98,NW,320,3.0,10.0,55,0.00,,,0.00,0,Wunderground v.1.15,2013-02-21 03:21:00,
2013-02-20 22:26:00,27.2,13.6,29.98,WNW,302,8.0,14.0,56,0.00,,,0.00,0,Wunderground v.1.15,2013-02-21 03:26:00,
2013-02-20 22:31:00,27.2,13.6,29.98,NW,308,5.0,5.0,56,0.00,,,0.00,0,Wunderground v.1.15,2013-02-21 03:31:00,
2013-02-20 22:36:00,27.1,13.5,29.98,NW,307,8.0,10.0,56,0.00,,,0.00,0,Wunderground v.1.15,2013-02-21 03:36:00,
2013-02-20 22:41:00,27.0,13.4,29.98,NW,308,4.0,14.0,56,0.00,,,0.00,0,Wunderground v.1.15,2013-02-21 03:41:00,
2013-02-20 22:46:00,27.0,13.4,29.98,NW,323,8.0,14.0,56,0.00,,,0.00,0,Wunderground v.1.15,2013-02-21 03:46:00,
2013-02-20 22:51:00,26.9,13.7,29.99,NW,304,4.0,12.0,57,0.00,,,0.00,0,Wunderground v.1.15,2013-02-21 03:51:00,
2013-02-20 22:56:00,26.9,13.3,29.99,NW,306,9.0,13.0,56,0.00,,,0.00,0,Wunderground v.1.15,2013-02-21 03:56:00,
2013-02-20 23:01:00,26.9,13.7,29.99,NW,323,5.0,9.0,57,0.00,,,0.00,0,Wunderground v.1.15,2013-02-21 04:01:00,
2013-02-20 23:06:00,26.8,13.6,29.99,NNW,344,1.0,10.0,57,0.00,,,0.00,0,Wunderground v.1.15,2013-02-21 04:06:00,
2013-02-20 23:11:00,26.8,13.6,30.00,NW,306,1.0,16.0,57,0.00,,,0.00,0,Wunderground v.1.15,2013-02-21 04:11:00,
2013-02-20 23:16:00,26.7,13.5,29.99,WNW,300,6.0,16.0,57,0.00,,,0.00,0,Wunderground v.1.15,2013-02-21 04:16:00,
2013-02-20 23:21:00,26.7,13.5,29.99,NW,304,1.0,5.0,57,0.00,,,0.00,0,Wunderground v.1.15,2013-02-21 04:21:00,
2013-02-20 23:26:00,26.6,13.4,29.99,NW,309,3.0,13.0,57,0.00,,,0.00,0,Wunderground v.1.15,2013-02-21 04:26:00,
2013-02-20 23:31:00,26.5,13.3,29.99,NW,309,4.0,10.0,57,0.00,,,0.00,0,Wunderground v.1.15,2013-02-21 04:31:00,
2013-02-20 23:36:00,26.5,13.3,29.99,NW,304,5.0,16.0,57,0.00,,,0.00,0,Wunderground v.1.15,2013-02-21 04:36:00,
2013-02-20 23:41:00,26.5,13.3,29.99,NW,315,4.0,13.0,57,0.00,,,0.00,0,Wunderground v.1.15,2013-02-21 04:41:00,
2013-02-20 23:46:00,26.4,13.2,29.99,NNW,327,2.0,17.0,57,0.00,,,0.00,0,Wunderground v.1.15,2013-02-21 04:46:00,
2013-02-20 23:51:00,26.4,13.6,30.00,NNW,329,7.0,13.0,58,0.00,,,0.00,0,Wunderground v.1.15,2013-02-21 04:51:00,
2013-02-20 23:56:00,26.4,13.6,29.99,NW,325,7.0,13.0,58,0.00,,,0.00,0,Wunderground v.1.15,2013-02-21 04:56:00,